COSMOS 1275 DEB

Satellite information

Favourite Embed

Satellite Type and Status

DEBRISIN ORBIT

Key statistics

Satellite COSMOS 1275 DEB at a glance.

Uptime

16167

Days in orbit

Revolutions

≈ 15.1

Per day

Orbit

LEO

Low Earth Orbit

Inclination

82.9

Latest

Satellite identification and parameters

Extended collection of information and parameters for COSMOS 1275 DEB.

Object identification

Identified? True

Debris? True

Object name: COSMOS 1275 DEB

International designator: 1981-053GG

Object number (NORAD): 13486

Object ID (CCSDS): 13486

Country: COMMONWEALTH OF INDEPENDENT STATES (CIS)

Current information (Y/N): Y

RCS size: SMALL

Orbital parameters

Period: 95.68 minutes

Inclination: 82.8616 deg

SMA: 6929.58 km

Apoapsis: 555.02 km

Periapsis: 547.87 km

RAAN: 307.9363 deg

Eccentricy: 0.00051592

Argument of periapsis: 141.2213 deg

Mean anomaly: 218.9386 deg

Mean motion: 15.05020333 rev/day

Mean motion (dot): 0.00051267 rev/day2

B* drag term: 0.0035877815 1/REarth

Two-line elements (TLE)

Creation date: Sept. 8, 2025, 3:16 a.m.

Reference frame: TEME

Reference center: EARTH

Epoch: Sept. 7, 2025, 1:08 p.m. UTC

TLE line 0: 0 COSMOS 1275 DEB

TLE line 1: 1 13486U 81053GG 25250.54783543 .00051267 00000-0 35878-2 0 9996

TLE line 2: 2 13486 82.8616 307.9363 0005159 141.2213 218.9386 15.05020333230419

Live tracking on map

Real-time ground track for satellite COSMOS 1275 DEB.

In-orbit conjunctions

A list of the most updated potential collisions computed for object COSMOS 1275 DEB.

Target Orbit TCA Probability of collision Miss distance Type
FENGYUN 1C DEB SSO 2024-11-12 09:20:22 0.0001101144 853.0 (m) DEBRIS
SAC C SSO 2024-06-24 19:59:05 0.0001002126 216.0 (m) PAYLOAD

Associated space launch

Navigation satellite providing location information for the Tsiklon-B navigation system

COSMOS 1275 DEB was lifted into orbit during the mission ‘Kosmos-3M | Parus 27’, on board a Kosmos-3M space rocket.

The launch took place on June 4, 1981, 3:41 p.m. from 132/2.

For more information about the launch, click the button.

Launch to space Kosmos-3M | Parus 27
Kosmos-3M | Parus 27

Agency: N/A

Status: Launch Successful

Launch date: June 4, 1981, 3:41 p.m. UTC

Rocket: Kosmos-3M

Launch pad: 132/2

Location: Plesetsk Cosmodrome, Russian Federation

...

Latest news about this satellite

There are no fresh news available about this satellite. Check back as we update our databases every day.


Newsletter sign-up

Weekly statistics, charts and insights to help you stay on top of the space industry.